Regional Weather Roundup
Issued by NWS Wakefield, VA

Home | Current Version | Previous Version | Graphics & Text | Print | Product List | Glossary On
Versions: 1 2 3 4 5 6 7 8 9 10 11 12 13 14 15 16 17 18 19 20 21 22 23 24 25 26 27 28
000
ASUS41 KAKQ 280415
RWRAKQ

REGIONAL WEATHER ROUNDUP
NATIONAL WEATHER SERVICE WAKEFIELD VA
1200 AM EDT SUN AUG 28 2016

Note: "fair" indicates few or no clouds below 12,000 feet with no
significant weather and/or obstructions to visibility. * = Denotes
station may not report precipitation (e.g., rain,snow,etc.),
thunder or fog.

VAZ042-051-052>054-056-280500-
NORTHERN VIRGINIA

CITY           SKY/WX    TMP DP  RH WIND       PRES   REMARKS
WASH NATIONAL  CLEAR     80  67  64 SE7       30.20S
DULLES         CLEAR     72  64  76 CALM      30.20S
FORT BELVOIR   CLEAR     69  67  93 CALM      30.19F
QUANTICO       CLEAR     78  69  73 VRB3      30.20S
FREDERICKSBRG* CLEAR     71  70  96 CALM      30.19S
STAFFORD*      CLEAR     67  66  97 CALM      30.24S
WARRENTON      CLEAR     66  61  84 CALM      30.20S
CULPEPER*      CLEAR     69  69  99 CALM      30.21S
MANASSAS*      CLEAR     70  68  94 CALM      30.20S
LEESBURG*      CLEAR     73  72  94 CALM      30.21F
WINCHESTER     CLEAR     70  64  83 CALM      30.21F
FRONT ROYAL*   FAIR      70  68  94 CALM      30.20F
LURAY*         FAIR      72  72 100 CALM      30.22F
$$

VAZ048-049-060>072-079>083-280500-
CENTRAL AND SOUTH CENTRAL VIRGINIA

CITY           SKY/WX    TMP DP  RH WIND       PRES   REMARKS
RICHMOND       CLEAR     73  65  75 NE6       30.19R
CHESTERFIELD*  FAIR      72  55  56 CALM      30.20S
PETERSBURG*    CLEAR    N/A N/A N/A CALM      30.19S
HANOVER        CLEAR     68  64  87 NE3       30.21R
TAPPAHANNOCK*  CLEAR     68  68 100 CALM      30.20S
QUINTON*       FAIR      70  68  95 CALM      30.18S
CHARLOTTSVILLE CLEAR     73  69  87 N3        30.21F
GORDONSVILLE*  FAIR      70  68  94 CALM      30.20F
ORANGE*          N/A     70  70 100 CALM      30.23S
LOUISA*        CLEAR     68  66  94 CALM      30.20S
BUMPASS*       FAIR      70  67  92 CALM      30.20S
FARMVILLE*     CLEAR     74  69  83 CALM      30.19R
CREWE*         FAIR      68  68 100 CALM      30.20R
FORT PICKETT*  NOT AVBL
CHASE CITY*    FAIR      76  67  72 CALM      30.18S
CLARKSVILLE*   FAIR      79  70  73 E5        30.17S
SOUTH HILL*    CLEAR     72  68  86 CALM      30.23S
LAWRENCEVILLE* FAIR      73  66  80 CALM      30.18R
EMPORIA*       CLEAR     73  63  68 CALM      30.18F
$$

VAZ088>098-280500-
SOUTHEAST VIRGINIA

CITY           SKY/WX    TMP DP  RH WIND       PRES   REMARKS
NORFOLK        CLOUDY    78  75  90 NE8       30.16F
VIRGINIA BEACH MOCLDY    83  74  74 E5        30.15S
NORFOLK NAVAL  MOCLDY    79  74  84 E10       30.18S
WEST POINT*    CLEAR     68  66  94 CALM      30.20S
SALUDA*        FAIR      78  74  86 NE6       30.18S
NEWPORT NEWS   PTCLDY    76  72  87 E5        30.17F
LANGLEY AFB    CLOUDY    78  75  88 E12       30.16F
FORT EUSTIS    CLEAR     76  70  81 E3        30.15F
WILLIAMSBURG*  CLEAR     75  72  88 CALM      30.19S
HR EXEC AP*    FAIR      75  72  88 NE5       30.19S
FRANKLIN*      CLEAR     70  68  92 CALM      30.17F
US460-WAKEFLD  CLEAR     69  66  90 CALM      30.17F
$$

VAZ020-022-025-037-045-280500-
WEST CENTRAL AND SOUTHWEST VIRGINIA

CITY           SKY/WX    TMP DP  RH WIND       PRES   REMARKS
STAUNTON*      CLEAR     69  67  94 CALM      30.25F
WAYNESBORO*    FAIR      75  65  71 E7        30.25S
HOT SPRINGS VA CLEAR     69  69 100 E3        30.37S
LYNCHBURG      PTCLDY    76  65  68 NE7       30.23R
DANVILLE       CLEAR     76  70  82 E5        30.18R
SOUTH BOSTON*  FAIR      75  69  80 NE3       30.18R
MARTINSVILLE   MOCLDY    73  72  95 CALM      30.23R
ROANOKE        CLOUDY    80  70  71 S3        30.24S
BLACKSBURG     CLOUDY    76  70  82 NE5       30.30S
DUBLIN*        CLOUDY    70  69  96 NW3       30.29S
MARION*        CLOUDY    73  68  86 CALM      30.32S
HILLSVILLE*    CLOUDY    71  71  99 CALM      30.30R
RICHLANDS*     FAIR      76  69  80 SE3       30.29S
WISE*          LGT RAIN  73  54  49 SE5       30.29S
ABINGDON*      CLOUDY    76  72  89 CALM      30.25S
$$

MDZ021>025-VAZ099-100-280500-
SOUTHERN MARYLAND AND THE DELMARVA PENINSULA

CITY           SKY/WX    TMP DP  RH WIND       PRES   REMARKS
PATUXENT RIVER CLEAR     76  71  85 E12       30.20R
BAY BRIDGE APT CLEAR     75  70  83 E7        30.21S
LEONARDTOWN    CLEAR     73  68  83 E3        30.22R
DOVER          CLEAR     73  73 100 E6        30.20S
GEORGETOWN     NOT AVBL
EASTON         CLEAR     73  73  98 CALM      30.25R
CAMBRIDGE      CLEAR     70  70 100 CALM      30.20S
SALISBURY      CLEAR     72  71  97 E3        30.20R
OCEAN CITY     CLEAR     77  73  87 NE7       30.20R
WALLOPS ISLAND PTCLDY    78  67  68 NE13      30.20R
ACCOMACK*      MOCLDY    75  72  90 NE8       30.18S
$$

NCZ012>017-030>032-280500-
NORTH CENTRAL AND EASTERN NORTH CAROLINA

CITY           SKY/WX    TMP DP  RH WIND       PRES   REMARKS
ROANOKE RAPIDS FAIR      72  68  88 CALM      30.17R
RALEIGH        MOCLDY    79  69  71 E9        30.16R
ELIZABETH CITY CLEAR     77  75  93 N9        30.15S
AHOSKIE*       CLEAR     73  70  91 CALM      30.16S
EDENTON*       CLEAR    N/A N/A N/A N5        30.15F
CURRITUCK*       N/A     79  77  93 NE7       30.16S
KILL DEVIL HLS CLOUDY    79  78  98 NE7       30.13F
MANTEO         MOCLDY    78  77  96 NE9       30.14F
CAPE HATTERAS  MOCLDY    81  77  88 NE9       30.12S
TARBORO*       FAIR      75  72  89 CALM      30.16S
GOLDSBORO      PTCLDY    77  77 100 E1        30.13R
WASHINGTON     CLEAR     76  74  95 NE3       30.14S
GREENVILLE     CLEAR     77  73  88 CALM      30.16S
NEW BERN       CLEAR     79  75  87 NE6       30.14S
WILMINGTON     PTCLDY    77  74  90 N3        30.12S
$$

VAZ048-280500-
ELSEWHERE

CITY           SKY/WX    TMP DP  RH WIND       PRES   REMARKS
HARRISBURG PA  CLEAR     76  68  76 CALM      30.19S
BALTIMORE      CLEAR     75  68  78 E6        30.20S
ANNAPOLIS      CLEAR     79  72  79 SE9       30.20S
ANDREWS AFB    CLEAR     73  67  83 E3        30.20S
PHILADELPHIA   PTCLDY    74  66  76 E6        30.23S
HENDERSON NC   CLEAR     71  66  85 E3        30.18S
GREENSBORO     PTCLDY    75  73  93 N3        30.18R
ROCKY MOUNT    CLEAR     76  72  87 NE3       30.15S
$$

VAZ100-280500-
MARINE

STATION/POSITION TIME  TEMP    WIND        PRES    WAVE   SWELL
                       AIR SEA DIR/SP/G            HT/PER HT/PER
                 (UTC) (F)     (DEG/KT/KT) (MB)    (FT/S) (FT/S)
CAPE MAY NJ      0300   75 74   70/  6/  9 1022.4R
LEWES DE         0300   74 77   80/  8/ 10 1022.6R
OCEAN-CITY-INLET 0300   76 75   70/  5/  8 1022.7R
WACHAPREAGUE VA  0300   77 84   40/ 11/ 15 1021.9R
THOMAS POINT MD  0400   77 83  110/ 16/ 17 1023.7F
GOOSES REEF MD   0400   78 83  110/ 12/ 14 1023.2R   1/ 3
COVE POINT MD    0300   77     120/ 11/ 13 1023.0R
SOLOMONS ISLAND  0300   80 85   80/ 11/ 13   N/A
PINEY POINT MD   0300          100/  9/ 11   N/A
POTOMAC MD       0400   79 83   90/ 14/ 16 1021.6R   2/ 3
CAMBRIDGE MD     0300   76 85   80/  9/ 11 1021.9R
LEWISETTA VA     0300   81 85  100/ 12/ 14 1021.8R
RAPPAHANNOCK LGT 0300           60/ 13/ 16 1022.3R
STINGRAY PT      0400   80 84   20/ 14/ 17 1022.4R   2/ 3
YORK RVR RNG VA  0300   79      60/ 14/ 15 1021.3R
YORKTOWN VA      0300   80 83   70/ 14/ 16 1021.5R
JAMESTOWN VA     0400   78 86   50/  4/  6   N/A     0
DOMINION TERM VA 0300   79      70/ 10/ 13 1021.8R
KIPTOPEKE VA     0300      81   70/  8/ 12   N/A
CHES BAY BRIDGE  0300   78 78   40/ 12/ 14 1021.4R
CAPE HENRY VA    0300   78      50/ 10/ 12   N/A
WILLOUBY STN VA  0300   78      50/ 11/ 12   N/A
CAPE HENRY BUOY  0312      80                N/A     3/ 9
1ST LANDING BUOY 0400   78 78   70/ 10/ 12 1021.3R   2/ 3
CAPE CHARLES BUO 0326      79                N/A     3/ 4
OFFSHORE WE BUOY 0321      80                N/A     3/ 9
64NM E OF VA BCH 0350   80 81   40/ 14/ 17 1020.2R   3/ 9   2/ 9
DUCK PIER NC     0300   79 79   30/ 14/ 16 1020.1R
44100 DUCK FRF   0305      80                N/A     4/ 5
44056 DUCK FRF   0311      79                N/A     3/ 4
OREGON INLET NC  0300   80 79   30/ 12/ 16 1020.0R
HATTERAS NC      0300   82 85   40/  6/ 10 1019.6R
DIAMOND SHLS NC  0350   80 85  270/  2/  4 1019.7F   3/ 9   3/ 9
CAPE LOOKOUT NC  0400   81      20/  7/  9 1019.3F
$$




USA.gov is the U.S. government's official web portal to all federal, state and local government web resources and services.